Location: Broekland
(52.3610°N, 6.2005°E)
Time: 17:30:11
(UTC+00:00)

Cosmos 1833 Rocket - Pass Details

Date: 19 May 2025
Orbit: 831 x 839 km, 71.0° (Epoch: 16 June)

Event Time Altitude Azimuth Distance (km) Brightness Sun altitude
Rises 22:06:48 0° 236° (SW) 3,385 5.7 -15.3°
Reaches altitude 10° 22:09:23 10° 244° (WSW) 2,454 5.1 -15.5°
Maximum altitude 22:14:39 39° 313° (NW) 1,235 4.1 -15.7°
Drops below altitude 10° 22:19:57 10° 23° (NNE) 2,465 5.9 -16.0°
Sets 22:22:35 0° 31° (NNE) 3,403 6.5 -16.1°
